GFSGBSN_prec_radar_099.txt.gz
Reflectivity
-4 -20 -20 -20 -4 1 4 1 -10 -3 3 -6 -18 -20 -20 -20 -20 -20 -20 -20 -20 -20 -20 -20 -20 -20 -20 -20 -20 -20 -20 -20 -20 -20 -20 -20 -20 -20 -20 -20 -20 -20 -20 -20 -20 -20 -20
-20 -20 -20 -20 -20 -20 -16 -9 -14 -10 -19 -20 -20 -20 -20 -20 -20 -20 -20 -20 -20 -20 -20 -20 -20 -20 -20 -20 -20 -20 -20 -20 -20 -20 -20 -20 -20 -20 -20 -20 -20 -20 -20 -20 -20 -20 -20
-20 -20 -20 -20 -20 -20 -20 -20 -20 -20 -20 -20 -20 -20 -20 -20 -20 -20 -20 -20 -20 -20 -20 -20 -20 -19 -20 -20 -20 -20 -20 -20 -20 -20 -20 -20 -20 -20 -20 -20 -20 -20 -20 -20 -20 -20 -20
-5 -20 -20 -20 -4 -20 -20 -20 -20 -20 -20 -20 -20 -20 -20 -20 -20 -20 -20 -20 -20 -20 -20 -20 -20 -20 -20 -20 -20 -20 -20 -20 -20 -20 -20 -20 -20 -20 -20 -20 -20 -20 -20 -20 -20 -20 -20
-20 -20 -20 -20 -20 -20 -20 -20 -20 -20 -20 -20 -20 -20 -20 -20 -20 -20 -20 -20 -20 -20 -20 -20 -20 -20 -20 -20 -20 -20 -20 -20 -20 -20 -20 -20 -20 -20 -20 -20 -20 -20 -20 -20 -20 -20 -20
-7 -19 -13 -19 -20 -20 -20 -20 -20 -20 -20 -20 -20 -20 -20 -20 -20 -20 -20 -20 -20 -20 -20 -20 -20 -9 -20 -20 -20 -20 -20 -20 -20 -20 -20 -20 -20 -20 -20 -20 -20 -20 -20 -20 -17 -7 -20
7 -8 -11 -20 -20 -20 -20 -20 -20 -20 -20 -20 -20 -20 -20 -20 -20 -20 -20 -20 -20 -20 -20 -20 -20 -20 -20 -20 -20 -20 -20 -20 -20 -20 -20 -20 -20 -20 -20 -20 -20 -20 14 21 19 19 5
14 12 -20 -10 -20 -20 -20 -20 -20 -20 -20 -20 -20 -20 -20 -20 -20 -20 -20 -20 -20 -20 -19 -20 -20 -20 -20 -20 -20 -20 -20 -20 -20 -20 -20 -20 -20 -20 -20 -20 -20 10 34 13 -5 11 15
11 8 6 3 -20 -20 -20 -20 -20 -20 -20 -20 -20 -20 -20 -20 -20 -20 -20 -20 -20 -20 -15 -20 -20 -20 -20 -20 -20 -20 -20 -20 -20 -20 -20 -20 -20 -20 -20 -20 -13 8 -7 4 5 -13 12
0 14 12 -18 -20 -20 -20 -20 -20 -20 -20 -20 -20 -20 -20 -20 -20 -20 -20 -20 -20 -20 -15 -20 -7 -20 -10 -20 -7 -20 -20 -20 -20 -20 -20 -19 -20 -20 -20 -20 -20 -20 -20 7 20 18 17
17 7 -18 -20 -20 -20 -20 -20 -20 -20 -20 -20 -20 -20 -20 -20 -20 -20 -20 -20 -20 6 -15 -20 -7 -6 -20 -5 -20 -20 -20 -20 -20 -20 12 10 -20 -1 -20 -20 -18 -20 12 18 13 -0 4
6 6 -5 -20 -1 -20 -20 -20 -20 -20 -20 -20 -20 -20 -20 -20 -20 -20 -20 -20 -18 7 1 -20 -19 -15 -20 -20 -20 -20 -16 -13 -20 -20 -20 11 -13 -18 -20 -20 -18 9 13 5 -7 -4 -16
8 2 -20 -13 -20 -20 -20 -20 -20 -20 -20 -20 -20 -20 -20 -20 -20 -20 -20 -20 -1 -17 -20 -20 -20 -20 -20 30 13 9 25 16 -20 -20 6 -2 1 -20 -20 -8 -20 5 -15 -2 -2 1 -20
-6 -0 -7 -20 -20 -20 -20 -20 -20 -20 -20 -20 -20 -20 -20 -20 -20 -20 -20 1 1 -20 -20 -20 -20 -20 13 18 8 35 25 -16 -20 -20 21 19 26 -20 -20 -10 -15 -20 -20 4 9 13 -13
-20 -20 -20 -20 -20 -9 -20 -20 -20 -20 -20 -20 -20 -20 -20 -20 -20 -20 -20 -19 -20 -20 -20 -20 -20 -3 14 2 24 32 16 -20 -20 0 33 17 -8 -17 10 8 7 -7 6 19 10 15 18
-20 1 -20 -20 -20 -20 -20 -20 -20 -20 -20 -20 -20 -20 -20 -20 -20 -20 5 -18 -20 -20 -20 -20 -12 11 20 -2 13 -2 -20 -20 -9 -15 18 12 -17 -12 7 9 4 11 -1 20 9 7 -4
8 2 -20 -20 -6 -20 -20 -20 -20 -20 -20 -20 -20 -20 -20 -20 -20 -5 5 -20 -13 -20 -20 -20 -18 -4 11 22 11 15 15 -20 -15 -16 13 -8 -1 -10 -14 5 2 -5 7 10 -15 -20 22
10 -20 -20 3 -20 -20 -20 -20 -20 -20 -20 -20 -20 -12 -20 -20 10 -20 -7 -20 -20 -20 -20 -20 -3 7 16 23 18 29 25 3 -20 -20 -20 -20 9 6 -7 8 25 -16 -2 -8 18 4 9
13 -20 -20 -20 -20 -20 -20 -20 -20 -20 -20 -20 -20 -20 -20 -20 -4 -20 -20 -20 -20 -20 -20 -15 3 -8 18 20 27 32 39 16 -20 9 -13 2 -9 -6 19 -12 27 21 26 10 -6 16 -19
-19 -20 -20 -20 9 -20 -15 -20 -20 -20 -20 -20 -13 1 -17 -20 -20 -20 -20 -20 -6 -20 -20 -18 10 10 21 10 12 29 40 6 -20 -13 -10 0 -2 -13 11 5 -6 -20 -20 -20 -20 -19 14
-20 10 -20 -20 7 -20 -20 -20 -20 -20 -20 -20 -7 -7 -20 1 -4 -20 -20 -20 -20 -20 -20 10 2 6 11 13 13 18 14 5 -20 -20 -12 3 27 18 17 -19 -20 -11 24 26 24 -20 -13
-1 11 -20 -20 6 -20 1 -20 -20 -20 -20 -20 -20 -12 -20 -20 -20 -20 -20 -20 -20 -20 1 -5 0 -3 6 8 16 14 10 26 31 22 34 -13 -6 16 8 7 -19 -20 -20 -20 -20 -20 -20
19 8 -20 -13 -2 -20 -20 -14 -20 -20 -20 3 -19 -15 -3 -20 -20 -20 -20 -20 -20 -20 -20 -3 -2 -10 -5 -20 -15 7 -10 3 18 10 7 24 12 11 -18 9 -12 -20 -20 -20 -20 -20 -20
15 -18 6 -20 -9 -20 -20 8 -20 -20 -20 8 -20 2 -16 0 -20 -20 -20 -20 -20 -20 -20 -20 -17 -20 -20 -20 -20 1 -18 -20 2 5 2 -8 -11 9 -20 -20 -12 -19 -20 -20 -15 -20 -20
8 -16 3 4 -20 -20 -20 -19 -20 -20 -20 18 1 12 10 -5 -20 -20 -20 -20 -20 -20 -20 -20 -20 -20 -20 -20 -20 -8 5 19 -2 8 -12 -4 12 -20 -20 -20 -20 -20 -1 -20 -5 9 -20
-20 -20 -20 -0 4 -20 -5 -20 -20 -20 -20 21 -7 7 14 10 6 -20 -20 -20 -20 -20 -20 -20 -20 -20 -20 -20 -17 7 16 -3 -19 -16 -20 -19 -7 -20 -20 -20 -1 15 -20 -20 -20 16 -20
-20 -20 -20 -20 -20 -17 -20 -20 -20 -20 -20 9 14 -13 15 14 -9 -20 6 2 -13 -14 -20 -20 -20 -20 -20 2 20 11 16 -20 12 5 -14 -20 -20 1 -20 -15 7 -7 -20 -20 -1 10 1
-20 -20 -20 -20 -20 -16 -9 9 -20 -20 -20 -5 2 -4 8 8 -1 1 9 5 2 -2 7 -20 -1 -13 -2 4 5 3 10 -2 10 -8 3 15 9 7 12 0 8 -13 -20 -16 3 6 3
-20 -20 -20 -20 -20 -20 -18 -17 -20 -20 -20 -20 19 3 17 8 -17 -17 -20 -20 -19 -19 9 -20 -17 9 4 8 8 -1 11 -11 -4 26 -2 18 9 13 6 5 5 0 2 2 3 -1 15

GFSGBSN_prec_radar_105.txt.gz
Reflectivity
12 13 18 7 -18 -20 -20 -20 -20 -20 -20 -20 -20 -20 -20 -20 -20 -20 -20 -20 -20 -20 -20 -20 -20 -20 -20 -20 -20 -20 -20 -20 -20 -20 -20 -20 -20 -20 -20 -20 -20 -20 -20 -20 -20 -20 -20
3 14 15 19 20 -3 -20 -20 -20 -20 -20 -20 -20 -20 -20 -20 -20 -18 -20 -20 -20 -20 -20 -20 -20 -20 -20 -20 -20 -20 -20 -20 -20 -20 -20 -20 -20 -20 -20 -20 -20 -20 -20 -20 -20 -20 -20
0 10 23 23 19 20 8 -19 -20 -20 -20 -20 -20 -20 -20 -20 -20 -20 -20 -20 -20 -20 -20 -20 -20 -20 -20 -20 -20 -20 -20 -20 -20 -20 -20 -20 -20 -20 -20 -20 -20 -20 -20 -20 -20 -20 -20
-5 -20 -20 -5 24 25 14 7 -17 -20 -20 -20 -20 -20 -20 -20 -20 -20 -20 -20 -20 -20 -20 -20 -20 -20 -20 -20 -20 -20 -20 -20 -20 -20 -20 -20 -20 -20 -20 -20 -20 -20 -20 -20 -20 -20 -20
13 -18 -11 5 1 26 14 14 11 -20 -20 -20 -20 -20 -20 -20 -20 -20 -20 -20 -20 -20 -20 -20 -20 -20 -20 -20 -20 -20 -20 -20 -20 -20 -20 -20 -20 -20 -20 -20 -20 -20 -20 -20 -20 -20 -20
28 8 7 12 11 15 20 9 11 -0 -20 -20 -20 -20 -20 -20 -20 -20 -20 -20 -20 -20 -20 -20 -20 -20 -20 -20 -20 -20 -20 -20 -20 -20 -20 -7 -10 -7 -20 -20 -20 -20 -20 -20 -20 -20 -20
21 12 22 21 18 17 4 10 13 14 -15 -15 2 -13 -20 -20 -20 -20 -20 -20 -20 -20 -20 -20 -20 -20 -20 -20 -20 -20 -20 -20 -20 -20 -20 -20 -20 -20 -12 -20 -20 -20 -20 -20 -20 -20 -20
16 18 13 26 27 15 -9 8 11 9 -1 6 3 -16 -19 -20 -20 -20 -20 -20 -20 -20 -20 -20 -20 -20 -20 -20 -20 -20 -20 -20 -2 2 -9 12 -15 -20 -20 -5 4 -20 -20 -18 -20 -20 -4
21 12 19 30 21 15 -1 9 12 6 14 0 -3 4 -12 -20 -20 -20 -20 -20 -20 -20 -20 -20 -20 -20 -20 -20 -20 -20 -16 -20 -19 -5 -20 -4 -3 -18 -20 -20 6 -13 -20 -20 -20 24 18
11 20 15 22 27 15 17 14 11 15 8 5 1 -4 -20 -20 -20 -20 -20 -20 -20 -20 -20 -20 -20 -20 -20 -20 -20 -20 -20 -20 -20 -20 -20 -2 -20 -20 -20 10 28 -20 -20 -20 -20 17 15
35 22 16 20 19 10 18 14 14 16 14 8 5 -9 -20 -20 -20 -20 -20 -20 -20 -20 -20 -20 -20 -20 -20 -20 -20 -20 -20 -20 -20 -20 10 7 -19 -20 -20 -7 2 -16 -20 -20 -19 25 24
32 21 17 13 13 14 19 13 25 15 13 10 2 -20 -20 -20 -20 -20 -20 -20 -20 -20 -20 -20 -20 -20 -20 -20 -20 -20 -20 -20 -20 -20 -20 -20 -20 -20 -20 7 -3 -15 -18 -17 27 25 0
35 28 10 6 8 17 15 15 12 9 11 2 -20 -20 -20 -20 -20 -20 -20 -20 -20 -20 -20 -20 -20 -20 -20 -20 -20 -20 -20 -20 -0 -15 -20 -20 -20 -20 -8 10 -20 15 -0 21 16 32 -9
34 22 6 11 23 14 11 12 10 13 8 -20 -20 -20 -20 -20 -20 -20 -20 -20 -20 -20 -20 -20 -20 -20 -20 -20 -20 -20 -20 -10 -20 -20 -20 -20 -20 -19 -2 4 -6 -8 -20 1 4 -19 -20
27 15 18 9 7 7 -3 13 16 10 -5 -6 -20 -20 -20 -20 -20 -20 -20 -20 -20 -20 -20 -20 -20 -20 -20 -20 -20 -20 -2 13 -3 -14 1 1 19 -13 -15 23 17 -20 -20 -20 -20 -14 1
27 18 11 10 12 5 11 17 7 -4 -16 -20 -20 -20 -20 -20 -20 -20 -20 -20 -20 -20 -20 -20 -20 -20 -20 -20 -20 -20 -20 -20 7 -20 3 15 21 -16 -4 -17 3 -20 -20 -20 -20 6 13
19 21 22 19 14 11 19 11 4 -15 -20 -20 -20 -20 -20 -20 -20 -20 -20 -20 -20 -20 -20 -5 -20 2 -20 -9 -20 -20 -20 -20 -12 15 28 23 31 24 2 -19 -20 -20 -20 -20 9 16 25
25 16 13 9 6 10 9 4 -13 -20 -20 -20 -20 -20 -20 -20 -20 -20 -20 -20 -20 -20 -20 -20 -20 -19 -19 -18 -20 -20 -20 11 6 8 31 23 4 8 -10 14 7 16 -20 5 -11 29 34
11 9 10 15 12 10 9 -16 -20 -20 -20 -20 -20 -20 -20 -20 -20 -20 -20 -20 -20 -20 -20 -20 -19 -0 3 -20 -14 -20 -20 -18 -20 -20 -10 -13 6 -16 4 -13 35 -8 -15 14 12 29 17
13 16 12 9 17 6 -5 -17 -20 -20 -20 -20 -20 -20 -20 -20 -20 -20 -20 -20 -20 -20 -20 -20 -14 -20 -13 -20 -20 -20 -20 -18 -20 -20 -20 -20 4 5 19 18 10 20 16 18 34 16 20
16 14 9 3 7 7 -6 -20 -20 -20 -20 -20 -20 -20 -20 -20 -20 -20 -20 -20 -20 -20 -20 -20 -20 -18 -20 8 -20 -20 -20 -17 -20 -20 -17 -20 -18 14 13 22 18 -9 27 31 15 23 32
13 13 4 4 0 -18 -20 -20 -20 -20 -20 -20 -20 -20 -20 -20 -20 -20 -20 -20 -20 -20 -20 -20 -20 -20 -20 -20 -20 -20 -15 5 -7 -13 -20 -15 25 37 27 34 29 37 36 30 10 30 32
3 9 6 3 9 -20 -20 -20 -20 -20 -20 -20 -20 -20 -20 -20 -20 -20 -20 -20 -20 -20 -20 -20 -20 -20 -20 -20 -20 -20 8 12 -20 -15 -20 10 29 5 25 29 10 29 10 4 -5 16 -20
13 12 5 6 -10 -14 -20 -20 -20 -20 -20 -20 -20 -20 -20 -20 -20 -20 -20 -20 -20 -20 -20 -20 -20 -20 -20 -20 -20 -20 -20 -20 -20 -20 -20 1 -7 20 0 13 20 30 18 18 -13 -16 -19
1 7 7 -1 -20 -17 -20 -20 -20 -20 -20 -20 -20 -20 -20 -20 -20 -20 -20 -20 -20 -20 -20 -20 -20 -20 -20 -20 -20 -20 -20 -20 -20 14 -6 -5 -20 11 15 0 -6 -3 -6 -16 -3 4 3
2 -15 -1 2 -2 -10 -20 -20 -20 -20 -20 -20 -20 -20 -20 -20 -19 -20 -20 -20 -20 -20 -20 -20 -20 -20 -20 -20 -20 4 6 -18 10 -9 -20 -15 12 4 -20 -5 10 -18 -20 -20 -20 -20 9
-11 18 10 -5 -20 0 -20 -20 -17 -20 -20 -20 -20 -20 -20 -20 -20 -20 -20 -20 -20 -20 -20 -20 -20 -20 -20 -20 -20 -13 10 -20 -15 -4 -14 -20 -20 -20 -20 -17 -20 -20 -20 -20 -8 -4 15
14 -3 13 -17 -20 -20 8 -20 -20 -20 -20 -20 -3 -20 -16 -20 -20 -20 -20 -20 -20 -20 -20 -20 -20 -20 -20 -20 -20 -20 -20 -18 1 3 4 -20 -14 -20 -20 -20 -20 -20 -20 -19 11 20 14
-20 -16 -9 1 -20 -20 -20 -15 -20 -20 -20 -20 -20 -20 -20 -20 -20 -20 -20 -20 -20 -20 -20 -20 -20 4 -17 -20 -20 -20 -20 -20 -19 -1 -20 -13 -19 -20 -6 -12 -3 0 7 5 3 2 24

GFSGBSN_prec_radar_108.txt.gz
Reflectivity
5 -7 -20 -20 -16 14 11 12 17 -1 8 0 -20 -20 -20 -20 -20 -20 -20 -20 -20 -20 -20 -20 -20 -20 -20 -20 -20 -20 -20 -20 -20 -20 -20 -20 -20 -20 -20 -20 -20 -20 -20 -20 -20 -20 -20
20 1 7 -20 -11 -9 0 3 -13 1 -10 -10 -2 -20 -20 -20 -20 -20 -20 -20 -20 -20 -20 -20 -20 -20 -20 -20 -20 -20 -20 -20 -20 -20 -20 -20 -20 -20 -20 -20 -20 -20 -20 -20 -20 -20 -20
8 18 28 18 -14 -18 -20 -20 8 21 -4 -9 -20 -20 -20 -20 -20 -20 -20 -20 -20 -20 -20 -20 -20 -20 -20 -20 -20 -20 -20 -20 -20 -20 -20 -20 -20 -20 -20 -20 -20 -20 -20 -20 -20 -20 -20
8 21 8 -18 20 -5 -3 -11 -17 14 22 11 6 -20 -20 -20 -20 -20 -20 -20 -20 -20 -20 -20 -20 -20 -20 -20 -20 -20 -20 -20 -20 -20 -20 -20 -20 -20 -20 -20 -20 -20 -20 -20 -20 -20 -20
13 12 12 25 -3 20 -20 11 5 4 9 6 8 -10 -20 -20 -20 -20 -20 -20 -20 -20 -20 -20 -20 -20 -20 -20 -20 -20 -20 -20 -20 -20 -20 -20 -20 -20 -20 -20 -20 -20 -20 -20 -20 -20 -20
19 14 8 16 8 6 -11 -3 18 -8 -19 -19 -12 -17 -8 -20 -20 -20 -20 -20 -20 -20 -20 -20 -20 -20 -20 -20 -20 -20 -20 -20 -20 -20 -20 -20 -20 -20 -20 -20 -17 -20 -20 -20 -20 -20 -20
19 18 14 14 23 6 3 13 15 -8 -20 -20 -19 -14 -6 -20 -20 -20 -16 -20 -20 -20 -20 -20 -20 -20 -20 -20 -20 -20 -20 -20 -20 -20 -20 -20 -20 -20 -20 -20 8 9 -20 -20 -20 -20 -20
16 26 19 20 25 14 15 19 23 -14 -20 -20 -20 -19 -6 2 -11 -4 9 -0 -20 -20 -20 -20 -20 -20 -20 -20 -20 -20 -20 -20 -20 -20 -20 -20 -20 -20 -15 8 -15 -20 10 7 -20 -20 -20
22 21 23 26 34 10 15 10 5 3 -19 -20 -20 -9 -10 -13 -5 -7 -10 -20 -20 -20 -20 -20 -20 -20 -20 -20 -20 -20 -20 -20 -20 -20 -20 -20 -20 -20 -14 -20 0 -20 -20 -12 -20 -20 -20
24 31 20 19 26 34 28 20 2 -2 -19 -20 -12 6 9 10 -13 -14 -20 -20 -20 -20 -20 -20 -20 -20 -20 -20 -20 -20 -20 -20 -20 -20 -20 -20 -20 -14 -0 -20 2 -20 -20 -3 -16 -20 -19
23 29 19 9 28 36 26 15 9 3 -20 -20 -14 1 10 6 1 -19 -20 -20 -20 -20 -20 -20 -20 -20 -20 -20 -20 -20 -20 -20 -20 -20 -20 -20 -20 -20 -19 -20 -20 9 14 -4 6 -20 -18
14 19 22 33 21 33 33 15 16 -6 -20 -20 -20 -12 -9 -0 -4 -20 -20 -20 -20 -20 -20 -20 -20 -20 -20 -20 -20 -20 -20 -20 -20 -20 -20 -20 -20 -20 -20 -20 -20 -20 -20 -6 7 -20 -15
24 19 19 24 22 36 33 19 -12 -19 -7 -18 -20 -20 -9 -3 -17 -20 -20 -20 -20 -20 -20 -20 -20 -20 -20 -20 -20 -20 -20 -20 -20 -0 -20 -20 -20 -20 -20 -17 -20 -20 -17 9 -11 -6 -20
15 20 19 19 28 35 26 19 3 15 -12 -12 -13 -15 -17 -20 -20 -20 -20 -20 -20 -20 -20 -20 -20 -20 -20 -20 -20 -20 -20 -20 -20 2 -20 -20 -20 -20 -10 -19 -20 15 -20 -8 26 19 -7
20 29 12 27 27 31 33 22 13 -5 -20 -19 -19 -9 -19 -20 -20 -20 -20 -20 -20 -20 -20 -20 -20 -20 -20 -20 -14 -20 -20 -20 -3 -4 17 9 7 -20 -20 -20 -20 -20 -20 -18 9 13 -19
19 21 15 35 38 35 17 8 6 3 1 -8 -11 -19 -20 -20 -20 -20 -20 -20 -20 -20 -20 -20 -20 -20 -20 -20 -6 -20 -20 -20 -20 -20 -7 34 12 -20 -18 6 -3 -20 7 9 11 9 12
38 26 26 34 33 24 15 19 9 -9 -8 -11 -3 -20 -20 -20 -20 -20 -20 -20 -20 -20 -20 -20 -20 -19 -14 4 -15 -20 -20 -20 -20 -20 -3 10 27 -14 -19 -18 -20 -3 -17 13 6 13 12
33 35 34 25 12 21 18 8 2 -1 2 6 -1 -20 -20 -20 -20 -20 -20 -20 -20 -20 -20 -20 -20 -20 1 -20 -8 -20 -20 -20 -20 -20 -2 -11 36 -12 -2 -20 -3 22 -20 -8 -1 11 16
36 34 28 27 31 18 15 16 2 3 8 10 -14 -20 -20 -20 -20 -20 -20 -20 -20 -20 -20 -20 -20 -13 -20 -20 -18 -20 -20 -20 -20 -20 -2 -15 0 -14 10 16 11 8 -13 1 6 23 28
31 28 31 26 12 15 15 -0 4 13 7 -6 -20 -20 -20 -20 -20 -20 -20 -20 -20 -20 -20 -20 -20 -20 -20 -20 -20 -20 -20 -20 -20 -20 -20 -20 -5 -6 5 -3 2 31 24 17 21 30 22
25 28 16 12 14 15 4 -2 18 6 6 -19 -20 -20 -20 -20 -20 -20 -20 -20 -20 -20 -20 -20 -20 -20 -20 -20 -20 -20 -20 -20 -20 -20 -20 -16 -20 -1 29 21 26 21 35 34 33 42 18
15 9 6 11 12 7 1 9 12 3 -6 -20 -20 -20 -20 -20 -20 -20 -20 -20 -20 -20 -20 -20 -20 -20 -20 -20 -20 -20 -20 -20 -20 -20 -20 13 27 29 21 32 15 25 30 24 34 34 35
10 19 16 12 5 8 5 10 -2 -9 -20 -20 -20 -20 -20 -20 -20 -20 -20 -20 -20 -20 -20 -20 -20 -20 -20 -20 -20 -20 -20 -20 -20 -18 -20 -10 29 19 12 23 23 16 27 20 22 25 22
-3 -0 8 12 9 -2 -6 8 1 -20 -20 -20 -20 -20 -20 -20 -20 -20 -20 -20 -20 -20 -20 -20 -20 -20 -20 -20 -20 -20 -20 -20 -20 -4 -9 -20 -20 9 -11 -19 -6 20 28 7 3 -1 -15
4 -10 3 11 11 -7 -5 -8 -20 -20 -20 -20 -20 -20 -20 -20 -20 -20 -20 -20 -20 -20 -20 -20 -20 -20 -20 -20 -20 -20 -20 -20 -13 -19 6 -13 -19 -1 19 -16 1 8 11 8 4 3 0
12 5 5 10 8 -14 -13 -20 -20 -20 -20 -20 -20 -20 -20 -20 -20 -20 -20 -20 -20 -20 -20 -20 -20 -20 -20 -20 -20 -20 15 -5 11 12 -20 -10 19 25 9 6 -11 -20 -20 -20 -20 -4 3
12 7 7 -5 -11 -19 -17 -20 -20 -20 -20 -20 -20 -20 -20 -20 -20 -20 -20 -20 -20 -20 -20 -20 -20 -20 -20 -20 -20 -20 -20 -20 5 -9 -15 -14 -12 -5 -3 4 -20 -19 -20 -20 -20 3 13
11 13 13 -12 7 -5 -6 -8 -19 -20 -20 -20 -20 -20 -20 -20 -20 -20 -20 -20 -20 -20 -20 -20 -20 -20 -20 -20 -20 -20 -20 -20 13 4 -9 -20 -20 -20 -20 -20 -20 -20 -20 -20 0 19 10
13 7 6 10 6 -1 -18 -20 -20 -20 -20 -20 -20 -20 -20 -20 -20 -20 -20 -20 -20 -20 -20 -20 -20 -20 -20 -20 -20 -20 -20 -20 -18 -14 -20 -20 -20 -20 -2 -4 0 4 6 19 19 2 17

GFSGBSN_prec_radar_114.txt.gz
Reflectivity
-20 -20 -20 -20 -20 2 -17 -20 -20 -20 -20 -20 -20 -20 -20 -20 -20 -20 -20 -20 -20 -20 -20 -20 -20 -20 -20 -20 -20 -20 -20 -20 -20 -20 -20 -20 -20 -20 -20 -20 -20 -20 -20 -20 -20 -20 -20
-20 -20 -20 -17 0 -20 -20 -20 -20 -20 -20 -20 -20 -20 -20 -20 -20 -20 -20 -20 -20 -20 -20 -20 -20 -20 -20 -20 -20 -20 -20 -20 -20 -20 -20 -20 -20 -20 -20 -20 -20 -20 -20 -20 -20 -20 -20
-20 -15 -11 10 0 -20 -20 -20 -20 17 -20 -20 -20 -20 -20 -20 -20 -20 -20 -20 -20 -20 -20 -20 -20 -20 -20 -20 -20 -20 -20 -20 -20 -20 -20 -20 -20 -20 -20 -20 -20 -20 -20 -20 -20 -20 -20
2 22 -13 -13 15 2 -20 -14 7 -20 -20 -20 -20 -20 -20 -10 -20 -20 -20 -20 -20 -20 -20 -20 -20 -20 -20 -20 -20 -20 -20 -20 -20 -20 -20 -20 -20 -20 -20 -20 -20 -20 -20 -20 -20 -20 -20
27 23 7 9 8 15 4 -19 6 -20 -20 -9 -20 -20 -20 -20 -20 -20 -20 -20 -20 -20 -20 -20 -20 -20 -20 -20 -20 -20 -20 -20 -20 -20 -20 -20 -20 -20 -20 -20 -20 -20 -20 -20 -20 -20 -20
30 10 7 16 -10 -20 -17 17 1 3 16 -20 -20 -20 -20 -16 -20 -20 -20 -20 -20 -20 -20 -20 -20 -20 -20 -20 -20 -20 -20 -20 -20 -20 -20 -20 -20 -20 -20 -20 -20 -20 -20 -20 -20 -20 -20
-20 22 2 11 -17 14 -10 18 20 4 22 0 -20 -1 -20 3 -20 -20 -20 -20 -20 -20 -20 -20 -20 -20 -20 -20 -20 -20 -20 -20 -20 -20 -20 -20 -20 -20 -20 -20 -20 -20 -20 -20 -20 -20 -20
-20 -17 32 29 -0 7 -2 1 27 3 11 14 28 -4 7 11 -20 -20 -20 -20 -20 -20 -20 -20 -20 -20 -20 -20 -20 -20 -20 -20 -20 -20 -20 -20 -20 -20 -20 -20 -20 -20 -20 -20 -20 -20 -20
-20 -19 -9 21 17 2 14 8 3 24 -5 20 18 21 11 -19 -20 -20 -20 -20 -20 -20 -20 -20 -20 -20 -20 -20 -20 -20 -20 -20 -20 -20 -20 -20 -20 -20 -20 -20 -20 -20 -20 -20 -20 -20 -20
-20 -20 -3 7 21 22 22 6 11 16 24 -3 5 26 26 16 9 -20 -20 -20 -20 -20 -20 -20 -20 -20 -20 -20 -20 -20 -20 -20 -20 -20 -20 -20 -20 -20 -20 -20 -20 -20 -20 -20 -20 -20 -20
-20 -20 -20 -1 22 16 31 20 23 9 20 -10 14 26 32 14 -15 -20 -20 -20 -20 -20 -20 -20 -20 -20 -20 -20 -20 -20 -20 -20 -20 -20 -20 -20 -20 -20 -20 -20 -20 -20 -20 -20 -20 -20 -19
-0 2 -15 -9 12 30 24 17 28 -18 0 17 16 11 8 -6 -20 -20 -12 -14 -20 -20 -20 -20 -20 -20 -20 -20 -20 -20 -20 -20 -20 -20 -20 -20 -20 -20 -20 -20 -20 -20 -20 -20 -20 -20 -20
12 16 17 8 16 18 24 19 22 -15 8 22 19 27 4 6 -12 -17 -6 -20 -20 -20 -20 -20 -20 -20 -20 -20 -20 -20 -20 -20 -6 -10 -20 -20 -20 -20 -20 -20 -20 -20 -20 -20 -20 -11 6
-7 -2 6 11 16 16 21 24 -5 -13 13 27 28 12 16 14 -7 15 4 -16 -20 -20 -20 -20 -20 -20 -20 -20 -20 -20 -20 -20 -19 -19 -5 -0 -20 -20 -20 -20 -20 -20 -20 -14 5 16 5
-20 -20 -1 4 26 21 24 21 10 24 21 26 21 29 10 8 9 -13 -20 -20 -20 -20 -20 -20 -20 -20 -20 -20 -20 -20 -20 -20 -20 -20 3 2 -20 -20 -20 -20 -20 -20 -20 -2 16 5 12
-20 -20 -15 -2 26 16 23 13 23 27 28 20 26 15 1 14 4 -15 -17 -20 -20 -20 -20 -20 -20 -20 -20 -20 -20 -20 -20 -20 -20 -20 -20 -8 15 -20 -20 -20 -20 -20 -20 -8 -4 21 -7
-20 -20 -9 3 26 23 18 -6 20 20 23 24 20 14 16 24 11 0 -20 -20 -20 -20 -20 -20 -20 -20 -20 -20 -20 -20 -20 -20 -20 -20 -20 -20 9 -19 -20 -20 -20 -20 -20 -16 0 -9 -1
-4 7 4 25 24 26 16 4 23 38 29 17 17 -17 8 16 3 -20 -20 -20 -20 -20 -20 -20 -20 -20 -20 -20 -20 -20 -20 -20 -20 -20 -20 -13 17 -20 -20 -20 -20 -20 -20 4 15 -20 -2
15 19 25 27 23 22 8 13 25 20 31 25 12 -10 6 -8 -8 -13 -19 -20 -20 -20 -20 -20 -20 -20 -20 -20 -20 -20 -20 -20 -20 -20 -20 10 1 0 -20 -20 -20 -20 -19 2 6 22 3
22 26 25 23 23 25 19 22 32 37 25 24 -3 8 19 2 -15 -19 -16 -20 -20 -20 -20 -20 -20 -20 -20 -20 -20 -20 -20 -20 -20 -20 -20 -3 21 22 -2 13 15 -5 17 17 22 9 11
23 27 28 24 25 20 16 31 41 17 11 -5 13 3 8 2 -20 -15 -10 -20 -20 -20 -20 -20 -20 -20 -20 -20 -20 -20 -20 -20 -20 -20 -20 20 6 17 11 8 14 -7 27 19 -16 1 9
34 31 33 32 32 25 30 37 14 -2 -15 -17 11 7 13 4 13 6 -5 -8 -20 -20 -20 -20 -20 -20 -20 -20 -20 -20 -20 -20 -20 -20 -20 13 4 12 10 14 22 13 21 18 -1 11 13
37 36 34 31 32 39 41 25 7 9 -3 10 10 13 12 -1 0 -12 -4 -20 -20 -20 -20 -20 -20 -20 -20 -20 -20 -20 -20 -20 -20 -20 -20 12 15 12 -18 4 -11 7 18 24 7 -5 8
39 39 37 40 39 37 30 25 26 21 15 8 12 9 1 -11 4 3 -19 -20 -20 -20 -20 -20 -20 -20 -20 -20 -20 -20 -20 -20 -20 -20 -20 -19 26 13 9 1 15 -20 -7 -9 -19 -20 -9
38 38 39 35 33 30 13 2 7 10 6 13 5 4 -6 5 5 -20 -20 -20 -20 -20 -20 -20 -20 -20 -20 -20 -20 -20 -20 -20 -20 -19 -18 -20 31 17 21 11 8 -7 -17 -6 1 -15 -10
35 32 31 33 18 14 17 5 -15 -16 -11 7 3 -17 -14 2 -19 -20 -20 -20 -20 -20 -20 -20 -20 -20 -20 -20 -20 -20 -20 -20 -20 -20 -19 -20 13 18 5 -13 -20 -1 1 -20 -20 -6 -20
31 28 29 12 4 12 -15 -15 -20 -20 5 -16 -20 -20 -1 2 -16 -20 -20 -20 -20 -20 -20 -20 -20 -20 -20 -20 -20 -20 -20 -20 -20 -20 -12 -20 3 17 17 -20 -20 -20 -14 -19 -11 -13 -14
15 10 5 -20 -20 -7 -19 -20 -12 1 -14 -20 -20 -3 0 -13 -20 -20 -20 -20 -20 -20 -20 -20 -20 -20 -20 -20 -20 -20 -20 -20 -20 -10 10 -20 6 9 14 2 -20 -1 -17 -20 1 -11 -20
20 4 4 -2 -20 -20 -20 -20 -20 -19 -20 -20 -20 -8 -12 -20 -20 -20 -20 -20 -20 -20 -20 -20 -20 -20 -20 -20 -20 -20 -20 -20 -20 17 0 -14 -11 11 3 -20 3 8 -1 -7 -20 -12 -10

GFSGBSN_prec_radar_117.txt.gz
Reflectivity
7 9 -20 -20 9 -20 -20 -20 -20 -20 -20 -20 -20 -20 -20 -20 -20 -20 -20 -20 -20 -20 -20 -20 -20 -20 -20 -20 -20 -20 -20 -20 -20 -20 -20 -20 -20 -20 -20 -20 -20 -20 -20 -20 -20 -20 -20
21 0 9 -20 -20 -20 -20 -20 -20 -20 -20 -20 -20 -20 -20 -20 -20 -20 -20 -20 -20 -20 -20 -20 -20 -20 -20 -20 -20 -20 -20 -20 -20 -20 -20 -20 -20 -20 -20 -20 -20 -20 -20 -20 -20 -20 -20
20 30 16 0 2 -15 -19 11 -20 -20 -20 -20 9 -20 -20 -20 -20 -20 -20 -20 -20 -20 -20 -20 -20 -20 -20 -20 -20 -20 -20 -20 -20 -20 -20 -20 -20 -20 -20 -20 -20 -20 -20 -20 -20 -20 -20
22 21 18 10 35 -20 -20 -6 -7 -20 -20 -20 -20 -20 -20 -20 -20 -20 -20 -20 -20 -20 -20 -20 -20 -20 -20 -20 -20 -20 -20 -20 -20 -20 -20 -20 -20 -20 -20 -20 -20 -20 -20 -20 -20 -20 -20
-10 19 10 -20 23 6 3 -20 -18 12 9 -9 -20 -20 -20 -20 -20 -20 -20 -20 -20 -20 -20 -20 -20 -20 -20 -20 -20 -20 -20 -20 -20 -20 -20 -20 -20 -20 -20 -20 -20 -20 -20 -20 -20 -20 -20
-20 -19 -3 17 18 32 6 18 20 -13 24 15 -13 -20 -16 -20 -20 -20 -20 -20 -20 -20 -20 -20 -20 -20 -20 -20 -20 -20 -20 -20 -20 -20 -20 -20 -20 -20 -20 -20 -20 -20 -20 -20 -20 -20 -20
-20 -20 -20 18 30 24 12 12 5 15 15 17 13 15 1 13 -20 -20 -20 -20 -20 -20 -20 -20 -20 -20 -20 -20 -20 -20 -20 -20 -20 -20 -20 -20 -20 -20 -20 -20 -20 -20 -20 -20 -20 -20 -20
-20 -20 -20 -20 5 19 1 -14 13 -20 5 19 21 13 -7 1 -11 -20 -19 -20 -20 -20 -20 -20 -20 -20 -20 -20 -20 -20 -20 -20 -20 -20 -20 -20 -20 -20 -20 -20 -20 -20 -20 -20 -20 -20 -20
-20 -20 -20 -20 -20 -20 21 3 7 -20 4 11 25 12 8 14 6 -18 -6 -20 -20 -20 -20 -20 -20 -20 -20 -20 -20 -20 -20 -20 -20 -20 -20 -20 -20 -20 -20 -20 -20 -20 -20 -20 -20 -20 -20
3 -7 -20 -20 -20 -20 -6 30 34 19 2 7 11 25 20 10 7 -8 7 9 -15 -4 -19 -20 -20 -20 -20 -20 -20 -20 -20 -20 -20 -20 -20 -20 -20 -20 -20 -20 -20 -20 -20 -20 -20 -20 -20
6 -20 -20 -20 -20 -20 -20 9 20 12 5 0 22 10 22 2 12 -13 16 2 -9 -20 -20 -20 -20 -20 -20 -20 -20 -20 -20 -20 -20 -20 -20 -20 -20 -20 -20 -20 -20 -20 -20 -20 -20 -20 -20
5 -15 -16 -20 -1 -15 -20 -14 24 27 18 26 15 10 14 33 -15 -16 6 -3 -2 -17 -20 -20 -20 -20 -20 -20 -20 -20 -20 -20 -20 -20 -20 -20 -20 -20 -20 -20 -20 -20 -20 -20 -20 -20 -3
-20 7 10 -9 -5 -0 7 4 15 22 21 14 35 12 4 31 -13 -12 -6 -4 2 -17 -20 -20 -20 -20 -20 -20 -20 -20 -20 -20 -20 -20 -20 -20 -20 -20 -20 -20 -20 -20 -20 -20 -20 -20 -17
-20 -9 7 8 10 0 -16 12 25 14 23 -20 25 29 10 20 14 11 5 2 4 -20 -20 -20 -20 -20 -20 -20 -20 -20 -20 -20 -20 -20 -20 -13 -20 -20 -20 -20 -20 -20 -20 -20 -20 -20 -15
3 -17 2 13 17 14 9 -14 22 28 27 21 27 33 17 29 16 12 11 -20 -20 -20 -20 -20 -20 -20 -20 -20 -20 -20 -20 -20 -20 -20 -20 -20 -20 -20 -20 -20 -20 -20 -20 -20 -15 -20 5
5 12 -0 -20 3 -13 -7 -5 29 20 25 3 9 39 10 29 27 20 -7 -20 -20 -20 -1 -20 -20 -20 -20 -20 -20 -20 -20 -20 -20 -20 -20 -20 -4 -20 -20 -20 -20 -18 -20 15 1 -5 -11
9 6 7 -20 -16 -7 -1 -19 30 24 22 7 19 33 11 32 30 21 -19 -20 -20 0 -8 -20 -20 -20 -20 -20 -20 -20 -20 -20 -20 -20 -20 -20 -9 -20 -20 -20 -19 -7 1 -1 23 -16 19
-17 -20 -20 -20 -20 -1 -1 8 28 24 19 16 31 32 30 28 17 13 -4 -20 -20 2 -20 -20 -20 -20 -20 -20 -20 -20 -20 -20 -20 -20 -20 -20 1 -20 -20 -20 -20 -20 -4 17 8 -10 18
-20 -20 -20 -20 -11 14 11 18 25 19 -1 14 35 39 22 9 18 3 -20 2 24 20 -17 -20 -20 -20 -20 -20 -20 -20 -20 -20 -20 -20 -20 -20 -9 -8 -20 -20 -20 -20 3 15 23 19 17
-20 -11 7 15 15 18 17 22 16 16 -8 16 30 32 26 17 -3 2 -17 -6 -20 -3 -9 -12 -20 -20 -20 -20 -20 -20 -20 -20 -20 -20 -20 -20 0 -5 -15 5 4 -7 -10 11 20 14 11
12 12 -7 15 13 20 26 22 17 18 14 22 30 25 5 3 -4 -18 -8 7 5 4 -19 -20 -20 -20 -20 -20 -20 -20 -20 -20 -20 -20 -20 -20 -3 5 11 13 -6 11 3 -5 -17 -18 -16
21 -7 -16 17 20 25 21 1 11 12 27 10 30 21 -5 11 11 17 -6 -5 7 12 -19 -20 -20 -20 -20 -20 -20 -20 -20 -20 -20 -20 -20 -16 -20 11 -20 29 2 9 18 -12 -6 -20 -20
26 26 24 27 27 22 21 -5 16 23 22 31 25 9 0 19 4 -1 4 8 3 -2 -13 -20 -20 -20 -20 -20 -20 -20 -20 -20 -20 -20 -20 -20 -0 0 -15 12 -3 11 10 10 -6 -19 -20
36 31 25 22 11 9 1 26 25 35 14 18 10 21 9 2 -1 10 3 10 5 -3 -16 -20 -20 -20 -20 -20 -20 -20 -20 -20 -20 -20 -20 -20 -4 -11 -5 16 16 12 1 6 -8 -20 -6
35 36 34 33 32 31 26 32 35 35 31 29 21 14 18 15 12 9 9 5 -11 -20 -20 -20 -20 -20 -20 -20 -20 -20 -20 -20 -20 -20 -20 -20 1 -16 10 -13 14 12 1 -9 -2 -17 -10
31 34 32 32 32 37 35 35 36 22 12 12 14 27 15 11 -4 4 8 2 -20 -20 -20 -20 -20 -20 -20 -20 -20 -20 -20 -20 -20 12 -20 -20 -20 -20 8 8 9 -1 13 20 10 -9 -20
35 35 35 36 36 32 33 36 32 29 25 17 0 -14 -6 -8 8 3 -13 -20 -20 -20 -20 -20 -20 -20 -20 -20 -20 -20 -20 -20 -20 -5 5 -20 -20 -20 -18 -7 -13 -4 10 20 -8 -20 -20
31 36 38 37 35 32 25 23 19 12 6 -10 -20 -13 -5 -10 -18 -20 -20 -20 -20 -20 -20 -20 -20 -20 -20 -20 -20 -20 -20 -20 -20 -11 -8 -20 -14 -20 -19 3 6 9 16 -11 -16 -1 -20
32 18 20 17 20 21 22 7 -16 -9 -14 6 -2 -12 -19 -20 -20 -20 -20 -20 -20 -20 -20 -20 -20 -20 -20 -20 -20 -20 -20 -20 -20 17 -20 -15 -20 -20 2 3 -0 20 0 -13 14 -20 -20

GFSGBSN_prec_radar_120.txt.gz
Reflectivity
17 22 -15 24 23 -6 -20 -20 -20 -20 -20 -20 -20 -20 -20 -20 -20 -20 -20 -20 -20 -20 -20 -20 -20 -20 -20 -20 -20 -20 -20 -20 -20 -20 -20 -20 -20 -20 -20 -20 -20 -20 -20 -20 -20 -20 -20
6 24 12 26 11 15 -3 -20 -20 -20 -20 -20 -20 -20 -20 -20 -20 -20 -20 -20 -20 -20 -20 -20 -20 -20 -20 -20 -20 -20 -20 -20 -20 -20 -20 -20 -20 -20 -20 -20 -20 -20 -20 -20 -20 -20 -20
23 1 20 18 -18 -12 11 7 -17 -11 -20 -20 -20 -20 -20 -20 -20 -20 -20 -20 -20 -20 -20 -20 -20 -20 -20 -20 -20 -20 -20 -20 -20 -20 -20 -20 -20 -20 -20 -20 -20 -20 -20 -20 -20 -20 -20
-20 -9 20 -18 14 18 9 -10 -16 1 -19 -20 -3 -20 -20 -20 -20 -20 -20 -20 -20 -20 -20 -20 -20 -20 -20 -20 -20 -20 -20 -20 -20 -20 -20 -20 -20 -20 -20 -20 -20 -20 -20 -20 -20 -20 -20
-20 -3 -16 17 19 4 22 16 9 -10 -19 -3 10 7 -18 -20 -20 -20 -20 -20 -20 -20 -20 -20 -20 -20 -20 -20 -20 -20 -20 -20 -20 -20 -20 -20 -20 -20 -20 -20 -20 -20 -20 -20 -20 -20 -20
-20 -20 -20 -16 -20 20 -19 -20 4 24 26 15 19 2 -0 11 -20 -20 -20 -20 -20 -20 -20 -20 -20 -20 -20 -20 -20 -20 -20 -20 -20 -20 -20 -20 -20 -20 -20 -20 -20 -20 -20 -20 -20 -20 -20
-20 -20 -20 -20 -20 -20 17 -20 -2 15 32 27 21 16 14 16 -0 -20 -20 -20 -20 -20 -20 -20 -20 -20 -20 -20 -20 -20 -20 -20 -20 -20 -20 -20 -20 -20 -20 -20 -20 -20 -20 -20 -20 -20 -20
-2 -15 -20 -20 -20 -20 -8 24 12 24 20 -14 3 9 -9 -9 17 -20 -8 -17 -20 -20 -20 -20 -20 -20 -20 -20 -20 -20 -20 -20 -20 -20 -20 -20 -20 -20 -20 -20 -20 -20 -20 -20 -20 -20 -20
-20 -20 -20 -20 -20 -20 -20 -20 -4 25 6 -20 -17 -3 -13 17 10 11 -1 -11 6 -11 -18 -20 -20 -20 -20 -20 -20 -20 -20 -20 -20 -20 -20 -20 -20 -20 -20 -20 -20 -20 -20 -20 -20 -20 -20
-1 -20 -20 -14 -20 -20 -20 -20 -20 5 5 -16 12 -6 -4 10 -2 8 -15 -20 -12 -17 -20 -20 -20 -20 -20 -20 -20 -20 -20 -20 -20 -20 -20 -20 -20 -20 -20 -20 -20 -20 -20 -20 -20 -20 -20
-20 -20 -20 -11 -20 -20 -20 -20 -20 -20 23 -4 21 23 22 10 -9 13 25 -11 4 -20 3 -20 -20 -20 -20 -20 -20 -20 -20 -20 -20 -20 -20 -20 -20 -20 -20 -20 -20 -20 -20 -20 -20 -20 -20
-20 -20 -20 -20 8 -20 -20 -20 -20 -20 20 13 19 -4 19 -2 6 -14 28 15 13 -7 -10 -20 -20 -20 -20 -20 -20 -20 -20 -20 -20 -20 -20 -20 -20 -20 -20 -20 -20 -20 -20 -20 -20 -20 -20
1 -20 -20 -20 -13 -11 -20 -20 -19 -20 15 20 17 -6 -4 6 3 21 17 19 17 -3 -20 -20 -20 -20 -20 -20 -20 -20 -20 -20 -20 -20 -20 -20 -20 -20 -20 -20 -20 -20 -4 1 9 7 -20
1 0 -20 -20 -20 -12 6 -4 -20 -19 -4 20 22 6 19 -7 28 16 34 21 23 -20 -20 -20 -20 -20 -20 -20 -20 -20 -20 -20 -20 -20 -20 -20 -20 -20 -20 -20 -20 -20 4 4 9 6 2
-20 -17 -20 -20 -20 5 4 4 3 -20 19 17 24 6 16 21 29 39 4 20 21 -1 -20 -20 -20 -20 -20 -20 -20 -20 -20 -20 -20 -20 -20 -20 -20 -20 -20 -20 -20 -10 7 -7 5 -2 -3
-5 5 3 -20 -20 -4 12 13 5 -14 16 21 13 6 17 21 27 23 17 8 12 -20 -20 -20 -20 -20 -20 -20 -20 -20 -20 -20 -20 -20 -20 -20 -10 -20 -20 -20 -19 -20 -14 9 15 12 15
-20 5 3 3 -20 -20 13 14 -3 -15 30 16 21 11 21 19 36 33 26 4 -19 -20 -20 -14 -3 -20 -20 -18 -20 -20 -20 -20 -20 -20 -20 -20 -9 -20 -20 -20 -18 -2 12 13 -5 11 19
3 4 3 5 6 7 11 14 17 4 24 25 18 13 23 36 31 31 -2 -19 2 -15 -0 -0 -20 9 4 -0 -20 -20 -20 -20 -20 -20 -20 -19 9 -6 -20 -20 -20 -20 8 13 19 18 19
-1 -1 5 9 10 9 7 11 7 14 15 14 21 22 28 38 26 11 28 -5 -17 8 19 -5 -16 9 -6 -20 -20 -20 -20 -20 -20 -20 -20 8 6 -13 -15 -9 -20 -20 -20 -13 0 26 12
8 11 9 -6 -6 -5 7 15 20 17 28 7 24 18 33 36 13 -7 24 8 -14 17 22 20 12 9 -1 -20 -20 -20 -20 -20 -20 -20 -20 -17 1 1 7 -10 -2 3 -3 -17 24 16 2
6 -20 -20 -20 -20 -20 -20 1 6 22 23 9 6 8 5 12 2 -4 9 1 -15 -1 25 13 7 24 14 -20 -20 -20 -20 -20 -20 -20 -20 -14 -20 7 2 1 12 -4 -13 8 -14 5 7
-20 -20 -11 -15 1 17 17 25 17 23 14 9 4 -3 -15 -20 -16 13 12 7 -0 12 16 9 10 11 3 -20 -20 -20 -20 -20 -20 -20 -20 2 9 7 -14 9 15 -20 -12 -10 6 -3 -5
-17 26 16 9 16 14 28 17 22 21 22 11 -20 -16 -20 -20 -15 22 28 11 8 -20 -20 1 12 -2 -18 -20 -20 -20 -20 -20 -20 -20 -20 -3 -6 -2 8 -4 7 -3 -14 -6 2 -20 2
16 30 15 -20 -12 17 22 7 24 21 18 -12 -11 -20 -20 17 11 14 -17 -20 -18 -8 -2 11 -4 0 1 -20 -20 -20 -20 -20 -20 -20 -20 -8 -16 -20 8 9 17 5 -7 -20 -20 -14 -9
27 26 5 17 23 26 26 26 28 28 21 -18 -6 -18 1 17 8 7 7 25 8 -1 -12 7 2 1 -6 -20 -20 -20 -6 -20 -20 -20 -20 -20 -20 7 11 21 4 3 -15 3 -1 -8 -20
39 31 6 18 21 28 30 30 26 25 27 16 -8 -17 -19 1 22 11 9 16 1 -11 -0 -15 -17 -18 -15 -20 -20 -20 -20 -20 9 13 -18 -11 -5 8 13 20 11 -5 -17 -2 -1 3 -20
39 36 33 28 30 28 24 20 25 27 26 26 23 25 17 16 18 14 11 7 9 5 -3 -13 -20 -20 -20 -20 -20 -20 -6 -17 6 8 9 12 -1 6 12 18 -14 -20 3 18 8 3 -20
36 36 38 36 33 33 32 30 31 31 27 23 17 19 10 5 14 12 14 11 1 4 -1 -20 -20 -20 -20 -20 -20 -20 -20 -3 -8 5 7 -18 -2 4 6 14 8 -14 31 14 -0 -3 -20
32 35 36 33 33 32 32 28 24 21 28 26 14 17 18 5 -5 -5 -13 -9 -12 -19 -20 -20 -20 -20 -20 -20 -20 -20 -20 -2 5 8 -3 10 -8 -4 -1 2 7 24 11 15 -4 -6 -5

GFSGBSN_prec_radar_123.txt.gz
Reflectivity
16 21 32 27 26 8 13 32 -16 -20 -20 -20 -20 -20 -20 -20 -20 -20 -20 -20 -20 -20 -20 -20 -20 -20 -20 -20 -20 -20 -20 -20 -20 -20 -20 -20 -20 -20 -20 -20 -20 -20 -20 -20 -20 -20 -20
19 -15 18 20 13 30 15 17 11 13 -20 -20 -20 -20 -20 -20 -20 -20 -20 -20 -20 -20 -20 -20 -20 -20 -20 -20 -20 -20 -20 -20 -20 -20 -20 -20 -20 -20 -20 -20 -20 -20 -20 -20 -20 -20 -20
-20 19 8 20 7 15 20 6 17 1 -6 -20 -20 -20 -20 -20 -20 -20 -20 -20 -20 -20 -20 -20 -20 -20 -20 -20 -20 -20 -20 -20 -20 -20 -20 -20 -20 -20 -20 -20 -20 -20 -20 -20 -20 -20 -20
-20 -16 11 6 3 13 8 21 26 17 3 -20 -3 -12 -20 -20 -20 -20 -20 -20 -20 -20 -20 -20 -20 -20 -20 -20 -20 -20 -20 -20 -20 -20 -20 -20 -20 -20 -20 -20 -20 -20 -20 -20 -20 -20 -20
-20 -20 -6 -16 -3 12 1 10 24 21 13 15 -19 2 -6 7 -20 -20 -20 -20 -20 -20 -20 -20 -20 -20 -20 -20 -20 -20 -20 -20 -20 -20 -20 -20 -20 -20 -20 -20 -20 -20 -20 -20 -20 -20 -20
-20 -20 -20 -20 -20 2 -8 11 -4 -15 29 15 30 20 8 18 -20 -19 -20 -20 -20 -20 -20 -20 -20 -20 -20 -20 -20 -20 -20 -20 -20 -20 -20 -20 -20 -20 -20 -20 -20 -20 -20 -20 -20 -20 -20
2 -20 -20 -20 -20 -20 -20 -20 11 2 19 20 12 16 21 23 20 -20 -20 -20 -20 -20 -20 -20 -20 -20 -20 -20 -20 -20 -20 -20 -20 -20 -20 -20 -20 -20 -20 -20 -20 -20 -20 -20 -20 -20 -20
-20 -20 -20 -20 -20 -20 -20 -20 -20 11 11 19 -1 -6 12 28 25 -6 -20 -20 -20 -20 -20 -20 -20 -20 -20 -20 -20 -20 -20 -20 -20 -20 -20 -20 -20 -20 -20 -20 -20 -20 -20 -20 -20 -20 -20
-19 -20 -20 -20 -20 -20 -20 -20 -20 5 16 12 16 11 17 24 14 -12 -20 -20 -10 6 -20 -20 -20 -20 -20 -20 -20 -20 -20 -20 -20 -20 -20 -20 -20 -20 -20 -20 -20 -20 -20 -20 -20 -20 -20
2 -20 -20 -20 -20 -20 -20 -20 -20 -20 -20 16 21 14 -3 8 -7 -20 -20 -20 -6 23 -13 -20 -20 -20 -20 -20 -20 -20 -20 -20 -20 -20 -20 -20 -20 -20 -20 -20 -20 -20 -20 -20 -20 -20 -20
-3 0 -19 -20 -20 -20 -20 -20 -20 -20 -20 -20 17 2 6 17 -19 -19 -20 -20 6 -3 17 -20 -20 -20 -20 -20 -20 -20 -20 -20 -20 -20 -20 -20 -20 -20 -20 -20 -20 -20 -20 -20 -20 -20 -20
1 -20 -14 -14 -20 -20 2 -20 -20 -20 -20 -20 18 3 21 15 7 -1 -13 -16 12 29 23 5 -20 -20 -20 -20 -20 -20 -20 -20 -20 -20 -20 -20 -20 -20 -20 -20 -20 -20 -20 -20 -20 -20 -20
3 -14 -20 -20 -20 -20 -20 -20 -20 -20 -20 -19 17 14 -10 17 25 3 25 18 11 15 13 -1 -15 -20 -20 -20 -20 -20 -20 -20 -20 -20 -20 -20 -20 -20 -20 -20 -20 -20 -20 -20 -20 21 -9
-16 -20 -20 -3 -20 -20 -20 -3 -20 -20 -20 6 23 17 20 7 -1 -10 3 29 18 27 -19 3 -19 -20 -20 -20 -20 -20 -20 -20 -20 -20 -20 -20 -20 -20 -20 -20 -20 -20 -20 -6 -5 -10 -20
-15 -15 -3 -20 -20 -20 -18 -20 4 -2 -20 5 22 16 -0 -3 -18 -3 32 23 -5 -20 -20 -20 -20 -20 -20 -20 -20 -20 -20 -20 -20 -20 -20 -20 -20 -20 -20 -20 -20 -17 -20 -20 13 -17 9
4 -20 -20 -20 -20 -12 -20 -20 -18 12 4 18 6 7 3 -14 10 12 28 21 25 24 8 -10 -6 13 10 -20 -20 -20 -20 -20 -20 -20 -20 -20 -20 -20 -20 -20 -20 -20 -20 -7 6 15 18
7 7 -11 -9 -16 7 -20 7 2 12 12 19 4 13 16 4 23 28 19 -3 12 9 25 3 2 15 -20 14 -3 -1 -20 -20 -20 -20 -20 -20 -13 -20 -20 -20 -20 -20 1 12 14 17 16
-19 -19 2 -19 -1 9 6 2 10 12 5 17 10 25 20 21 10 19 -0 10 -1 -17 12 15 -2 -18 -4 -20 -20 5 -16 -12 -5 -20 -20 -20 0 -20 -20 -20 -20 -20 -20 -14 17 13 26
8 -1 -1 -8 6 8 -15 -2 13 22 19 14 14 11 19 15 7 1 -19 -6 3 -13 20 11 -3 -20 -2 8 2 3 4 13 5 -20 -5 -20 -6 -3 3 -15 -19 -20 -20 -20 -3 0 3
-20 9 -1 2 4 12 17 8 -5 19 20 -19 10 14 33 30 6 -20 -2 6 -19 -20 1 -14 -20 -20 8 13 13 -17 15 13 -19 -20 -20 -17 -8 -9 5 -20 -20 -20 -20 -20 2 14 19
-20 -20 -20 -17 4 12 8 13 14 23 23 -13 2 0 -16 6 -1 1 2 -3 -7 -1 -9 -20 -20 5 16 9 6 -18 10 10 -20 -20 -20 3 -8 -15 -15 -20 -20 -16 -12 -8 -20 -12 -0
6 -20 2 -1 5 10 11 18 21 20 18 17 12 3 -20 -20 -20 -20 6 -3 -20 -8 -20 -6 -1 -13 9 13 9 13 14 8 -20 -20 -2 4 11 -2 -20 -13 -14 2 -20 -20 -8 -3 -8
-20 4 -4 9 8 7 8 10 13 19 26 27 15 -16 -20 -19 -19 3 -3 -11 -20 -18 -20 -18 19 15 4 15 11 0 3 4 -20 -8 -20 7 8 1 6 0 2 16 -20 -20 -18 -20 2
0 9 10 -8 -20 -20 -20 -9 15 19 16 21 18 -14 7 -0 2 -20 -20 -20 -20 -19 -9 16 11 3 4 12 6 -2 -18 -20 -20 -20 -20 -20 -13 -13 -9 14 11 -4 -20 -20 -20 -20 -20
13 -16 -20 -7 0 7 4 13 22 28 23 17 17 -6 -16 -14 4 0 -18 -7 -17 9 23 7 -18 -19 -0 1 -19 -20 -20 -20 -20 -20 -20 -15 -10 2 11 10 7 5 -19 -18 -7 -20 -20
-13 7 20 1 -19 -0 -1 -3 33 37 33 6 -12 -19 -20 -18 -1 -20 -4 -20 -2 15 -20 -20 -20 -6 -15 -20 -20 -20 -20 -20 -7 7 6 4 -1 6 11 11 14 8 -20 -20 -20 -1 -20
36 35 11 6 12 13 11 -8 19 39 41 34 7 -14 -1 20 -18 -20 -9 -3 10 11 6 9 -1 -10 -20 -20 -20 -20 -17 -20 1 7 11 13 10 14 12 10 -2 -20 -20 -3 3 4 -20
37 34 -2 25 20 15 20 26 36 39 35 28 17 -13 -16 -20 2 -11 -16 7 22 17 3 -4 4 -10 -20 -20 -20 -20 -20 -20 -3 -14 7 3 12 5 8 7 16 -11 3 5 0 -13 -20
32 35 20 22 26 27 27 27 29 28 30 11 -11 -18 -20 -20 15 12 24 11 20 16 12 7 2 -4 -19 -20 -20 -20 -20 -15 -20 6 -20 7 -8 14 -18 3 -16 -2 11 6 21 14 4